This is the latest recevied weather packets stored in our database for station/object AC1IX. If no packets are shown the sender has not sent any weather packets the latest 10 day(s).
| Time | Temp. | Humidity | Pressure | Rain* | Wind** | Luminosity | Snow |
|---|---|---|---|---|---|---|---|
| 1778116560 | 6.67° C | 99% | 1010.1 hPa | 3.05 mm | - | 0 W/m² | - |
| 1778116255 | 6.67° C | 99% | 1009.9 hPa | 3.05 mm | - | 0 W/m² | - |
| 1778115950 | 6.67° C | 99% | 1010.2 hPa | 3.05 mm | - | 0 W/m² | - |
| 1778115647 | 6.67° C | 99% | 1010.2 hPa | 1.27 mm | - | 0 W/m² | - |
| 1778115345 | 7.22° C | 99% | 1009.7 hPa | 1.78 mm | - | 0 W/m² | - |
| 1778115040 | 7.22° C | 99% | 1009.8 hPa | 1.78 mm | - | 0 W/m² | - |
| 1778114738 | 6.67° C | 99% | 1009.7 hPa | 3.05 mm | - | 0 W/m² | - |
| 1778114435 | 6.67° C | 99% | 1009.6 hPa | 4.83 mm | - | 0 W/m² | - |
| 1778114131 | 6.67° C | 99% | 1009.8 hPa | 1.78 mm | - | 0 W/m² | - |
| 1778113826 | 6.67° C | 99% | 1009.6 hPa | 0 mm | - | 0 W/m² | - |
| 1778113523 | 6.67° C | 99% | 1009.5 hPa | 1.27 mm | - | 0 W/m² | - |
| 1778113219 | 6.67° C | 99% | 1009.3 hPa | 1.27 mm | - | 0 W/m² | - |
| 1778112915 | 7.22° C | 99% | 1009.4 hPa | 1.78 mm | - | 0 W/m² | - |
| 1778112613 | 7.22° C | 99% | 1009.3 hPa | 1.78 mm | - | 0 W/m² | - |
| 1778112309 | 7.22° C | 99% | 1009.2 hPa | 0 mm | - | 0 W/m² | - |
| 1778112004 | 7.78° C | 99% | 1009 hPa | 0 mm | - | 0 W/m² | - |
| 1778111702 | 7.78° C | 99% | 1009.1 hPa | 0 mm | - | 0 W/m² | - |
| 1778111397 | 8.33° C | 99% | 1008.9 hPa | 1.27 mm | - | 0 W/m² | - |
| 1778111095 | 8.33° C | 99% | 1008.8 hPa | 3.05 mm | - | 0 W/m² | - |
| 1778110793 | 8.89° C | 99% | 1008.6 hPa | 1.78 mm | - | 0 W/m² | - |
| 1778110489 | 8.89° C | 99% | 1008.2 hPa | 0 mm | - | 0 W/m² | - |
| 1778110185 | 8.89° C | 99% | 1008.2 hPa | 0 mm | - | 0 W/m² | - |
| 1778109882 | 9.44° C | 99% | 1007.9 hPa | 0 mm | - | 0 W/m² | - |
| 1778109578 | 9.44° C | 99% | 1007.8 hPa | 0 mm | - | 1 W/m² | - |
| 1778109275 | 8.89° C | 99% | 1007.5 hPa | 0 mm | - | 2 W/m² | - |
* Rain latest hour (hover to see other rain measurements)
** Current wind speed in m/s (hover to see current wind gust speed)